Weather History for Copper Harbor, MI

Change the Weather History Date:

Wednesday, January 8, 2014

  Actual Average Record
Temperature  
Mean Temperature 17 °F -  
Max Temperature 28 °F 24 °F 43 °F (2003)
Min Temperature 6 °F 14 °F 6 °F (2014)
Degree Days  
Heating Degree Days 48    
Moisture  
Dew Point 4 °F    
Average Humidity 61    
Maximum Humidity 87    
Minimum Humidity 38    
Precipitation  
Precipitation 0.68 in - - ()
Sea Level Pressure  
Sea Level Pressure 30.27 in    
Wind  
Wind Speed 15 mph (NNW)    
Max Wind Speed 23 mph    
Max Gust Speed 28 mph    
Averages and records for this station are not official NWS values.
T = Trace of Precipitation, MM = Missing Value Source: NWS Daily Summary

Daily Weather History Graph

Daily Weather History Graph

Search for Another Location

Airport:

Trip Planner

Search our weather history database for the weather conditions in past years. The results will help you decide how hot, cold, wet, or windy it might be!

Date:

Astronomy

Jan. 08, 2014 Rise Set
Actual Time 8:37 AM EST 5:18 PM EST
Civil Twilight 8:02 AM EST 5:54 PM EST
Nautical Twilight 7:24 AM EST 6:32 PM EST
Astronomical Twilight 6:47 AM EST 7:09 PM EST
Moon 12:24 PM EST (1/8) 1:27 AM EST (1/8)
Length of Visible Light 9h 51m
Length of Day
8h 40m
First Quarter, 56% of the Moon is Illuminated
Jan 8
First Quarter
Jan 15
Full
Jan 24
Last Quarter
Jan 30
New
Feb 6
First Quarter

Hourly Weather History & Observations

Time (EST) Temp. Windchill Dew Point Humidity Pressure Visibility Wind Dir Wind Speed Gust Speed Precip Events Conditions
12:51 AM 6.1 °F -12.8 °F 1.9 °F 83% 30.12 in - North 17.3 mph - 0.02 in   Unknown
1:51 AM 6.1 °F -12.8 °F 3.0 °F 87% 30.14 in - North 17.3 mph 25.3 mph 0.01 in   Unknown
2:51 AM 7.0 °F -8.3 °F 1.9 °F 80% 30.16 in - NNW 11.5 mph 20.7 mph 0.01 in   Unknown
3:51 AM 7.0 °F -5.7 °F 3.0 °F 84% 30.18 in - NNW 8.1 mph - N/A   Unknown
4:51 AM 8.1 °F -0.5 °F 3.9 °F 83% 30.19 in - NW 4.6 mph - 0.01 in   Unknown
5:51 AM 9.0 °F -11.4 °F 5.0 °F 84% 30.18 in - North 23.0 mph 27.6 mph 0.01 in   Unknown
6:51 AM 10.0 °F -9.5 °F 5.0 °F 80% 30.19 in - North 21.9 mph 27.6 mph 0.02 in   Unknown
7:51 AM 10.0 °F -8.6 °F 3.9 °F 76% 30.20 in - North 19.6 mph 25.3 mph 0.01 in   Unknown
8:51 AM 9.0 °F -6.6 °F 3.0 °F 77% 30.22 in - NNW 12.7 mph 23.0 mph 0.01 in   Unknown
9:51 AM 9.0 °F -10.0 °F 3.9 °F 80% 30.27 in - North 19.6 mph 27.6 mph 0.02 in   Unknown
10:51 AM 24.1 °F 11.0 °F 3.9 °F 42% 30.28 in - NNW 16.1 mph 23.0 mph 0.04 in   Unknown
11:51 AM 24.1 °F 11.5 °F 3.0 °F 40% 30.28 in - NNW 15.0 mph 24.2 mph 0.02 in   Unknown
12:51 PM 23.0 °F 10.6 °F 3.9 °F 44% 30.27 in - NNW 13.8 mph 24.2 mph 0.09 in   Unknown
1:51 PM 21.9 °F 9.2 °F 3.0 °F 44% 30.28 in - NNW 13.8 mph 23.0 mph 0.09 in   Unknown
2:51 PM 21.9 °F 11.0 °F 5.0 °F 48% 30.28 in - NW 10.4 mph 25.3 mph 0.14 in   Unknown
3:51 PM 21.9 °F 10.4 °F 5.0 °F 48% 30.29 in - NNW 11.5 mph 16.1 mph 0.03 in   Unknown
4:51 PM 24.1 °F 12.0 °F 3.9 °F 42% 30.32 in - NNW 13.8 mph 26.5 mph 0.09 in   Unknown
5:51 PM 21.0 °F 7.1 °F 3.0 °F 46% 30.34 in - NNW 16.1 mph 23.0 mph N/A   Unknown
6:51 PM 19.9 °F 9.3 °F 5.0 °F 52% 30.35 in - NNW 9.2 mph 19.6 mph 0.01 in   Unknown
7:51 PM 28.9 °F 16.9 °F 6.1 °F 38% 30.37 in - North 17.3 mph - 0.02 in   Unknown
8:51 PM 28.9 °F 16.9 °F 7.0 °F 40% 30.39 in - North 17.3 mph - N/A   Unknown
9:51 PM 28.0 °F 16.5 °F 6.1 °F 39% 30.41 in - North 15.0 mph - 0.02 in   Unknown
10:51 PM 19.0 °F 13.9 °F 6.1 °F 57% 30.41 in - NW 3.5 mph - 0.01 in   Unknown
11:51 PM 17.1 °F - 5.0 °F 59% 30.42 in - Calm Calm - N/A   Unknown